Overview Statistics Trail Chart Weather Telemetry Raw packets
 

This is the latest recevied weather packets stored in our database for station/object K6TTR. If no packets are shown the sender has not sent any weather packets the latest 10 day(s).

<< 1 2 3 4 >>
Time Temp. Humidity Pressure Rain* Wind** Luminosity Snow
1788618433 2.78° C 92% 1017.9 hPa 0 mm - 32 W/m² -
1788618137 2.22° C 92% 1018.8 hPa 0 mm - 30 W/m² -
1788617851 2.22° C 92% 1018.7 hPa 0 mm - 26 W/m² -
1788617537 2.22° C 92% 1018.7 hPa 0 mm - 25 W/m² -
1788617235 2.22° C 92% 1018.6 hPa 0 mm - 21 W/m² -
1788616937 2.22° C 92% 1018.6 hPa 0 mm - 14 W/m² -
1788616636 2.22° C 92% 1018.6 hPa 0 mm - 11 W/m² -
1788616337 2.22° C 92% 1018.6 hPa 0 mm - 9 W/m² -
1788616036 2.22° C 92% 1018.6 hPa 0 mm - 5 W/m² -
1788615737 1.67° C 92% 1018.6 hPa 0 mm - 5 W/m² -
1788615435 1.67° C 92% 1018.4 hPa 0 mm - 0 W/m² -
1788615138 1.67° C 92% 1018.4 hPa 0 mm - 0 W/m² -
1788614837 1.67° C 92% 1018.4 hPa 0 mm - 0 W/m² -
1788614538 1.67° C 91% 1018.3 hPa 0 mm - 0 W/m² -
1788614241 1.67° C 91% 1018.3 hPa 0 mm - 0 W/m² -
1788613945 1.67° C 92% 1018.3 hPa 0 mm - 0 W/m² -
1788613646 1.11° C 92% 1018.2 hPa 0 mm - 0 W/m² -
1788613345 1.11° C 92% 1018.3 hPa 0 mm - 0 W/m² -
1788613043 1.11° C 91% 1018.3 hPa 0 mm - 0 W/m² -
1788612743 1.11° C 91% 1018.2 hPa 0 mm - 0 W/m² -
1788612441 1.11° C 91% 1018.2 hPa 0 mm - 0 W/m² -
1788612141 1.11° C 91% 1018.1 hPa 0 mm - 0 W/m² -
1788611839 1.11° C 91% 1018.1 hPa 0 mm - 0 W/m² -
1788611541 1.11° C 91% 1018.1 hPa 0 mm - 0 W/m² -
1788611241 1.11° C 91% 1018 hPa 0 mm - 0 W/m² -

* Rain latest hour (hover to see other rain measurements)
** Current wind speed in m/s (hover to see current wind gust speed)